Change the Weather History Date:

Friday, March 1, 2013

  Actual Average Record
Temperature  
Mean Temperature 58 °F -  
Max Temperature 77 °F 62 °F 77 °F (2013)
Min Temperature 38 °F 42 °F 30 °F (2007)
Degree Days  
Heating Degree Days 7    
Cooling Degree Days 0    
Growing Degree Days 7 (Base 50)    
Moisture  
Dew Point 38 °F    
Average Humidity 55    
Maximum Humidity 89    
Minimum Humidity 21    
Precipitation  
Precipitation 0.00 in 0.20 in 1.15 in (1991)
Month to date precipitation 0.00 0.20  
Year to date precipitation 1.51 11.67  
Since 1 July precipitation 20.67 25.43  
Sea Level Pressure  
Sea Level Pressure 30.33 in    
Wind  
Wind Speed 3 mph (NNE)    
Max Wind Speed 9 mph    
Max Gust Speed 12 mph    
Visibility 10 miles    
Events      
T = Trace of Precipitation, MM = Missing Value Source: NWS Daily Summary

Daily Weather History Graph

Daily Weather History Graph

Search for Another Location

Airport or City:

Trip Planner

Search our weather history database for the weather conditions in past years. The results will help you decide how hot, cold, wet, or windy it might be!

Date:

Astronomy

Mar. 01, 2013 Rise Set
Actual Time 6:42 AM PST 6:01 PM PST
Civil Twilight 6:15 AM PST 6:28 PM PST
Nautical Twilight 5:43 AM PST 7:00 PM PST
Astronomical Twilight 5:11 AM PST 7:31 PM PST
Moon 10:41 PM PST 8:31 AM PST
Length of Visible Light 12h 13m
Length of Day
11h 18m
Waning Gibbous, 82% of the Moon is Illuminated
Mar 1
Waning Gibbous
Mar 4
Last Quarter
Mar 11
New
Mar 19
First Quarter
Mar 27
Full

Hourly Weather History & Observations

Time (PST) Temp. Windchill Dew Point Humidity Pressure Visibility Wind Dir Wind Speed Gust Speed Precip Events Conditions
12:53 AM 45.0 °F 42.6 °F 39.0 °F 80% 30.44 in 10.0 mi North 4.6 mph - N/A   Clear
1:53 AM 43.0 °F 40.3 °F 39.0 °F 86% 30.44 in 10.0 mi NW 4.6 mph - N/A   Clear
2:53 AM 42.1 °F - 37.0 °F 82% 30.42 in 10.0 mi Calm Calm - N/A   Clear
3:53 AM 39.2 °F 35.9 °F 35.6 °F 87% 30.41 in 10.0 mi East 4.6 mph - N/A   Clear
4:53 AM 41.0 °F 39.0 °F 37.0 °F 86% 30.41 in 10.0 mi North 3.5 mph - N/A   Clear
5:53 AM 39.9 °F 37.8 °F 35.1 °F 83% 30.41 in 10.0 mi North 3.5 mph - N/A   Clear
6:53 AM 39.0 °F - 36.0 °F 89% 30.41 in 10.0 mi Calm Calm - N/A   Clear
7:53 AM 45.0 °F - 39.9 °F 82% 30.41 in 10.0 mi Calm Calm - N/A   Clear
8:53 AM 55.0 °F - 43.0 °F 64% 30.40 in 10.0 mi NNE 3.5 mph - N/A   Clear
9:53 AM 62.1 °F - 43.0 °F 50% 30.39 in 10.0 mi NNW 8.1 mph - N/A   Clear
10:53 AM 66.0 °F - 42.1 °F 42% 30.36 in 10.0 mi Calm Calm - N/A   Clear
11:53 AM 70.0 °F - 41.0 °F 35% 30.33 in 10.0 mi North 3.5 mph - N/A   Clear
12:53 PM 73.4 °F - 39.2 °F 29% 30.30 in 10.0 mi Variable 3.5 mph - N/A   Clear
1:53 PM 73.9 °F - 36.0 °F 25% 30.26 in 10.0 mi Variable 3.5 mph - N/A   Clear
2:53 PM 75.9 °F - 34.0 °F 22% 30.24 in 10.0 mi Calm Calm - N/A   Clear
3:53 PM 75.0 °F - 35.1 °F 23% 30.24 in 10.0 mi ESE 4.6 mph - N/A   Clear
4:53 PM 73.0 °F - 37.0 °F 27% 30.22 in 10.0 mi South 3.5 mph - N/A   Clear
5:53 PM 68.0 °F - 36.0 °F 31% 30.22 in 10.0 mi Calm Calm - N/A   Clear
6:53 PM 60.1 °F - 36.0 °F 41% 30.23 in 10.0 mi Calm Calm - N/A   Clear
7:53 PM 54.0 °F - 41.0 °F 62% 30.24 in 10.0 mi NE 5.8 mph - N/A   Clear
8:53 PM 55.0 °F - 39.0 °F 55% 30.25 in 10.0 mi Calm Calm - N/A   Clear
9:53 PM 54.0 °F - 39.0 °F 57% 30.26 in 10.0 mi Calm Calm - N/A   Clear
10:53 PM 50.0 °F - 37.9 °F 63% 30.27 in 10.0 mi Calm Calm - N/A   Clear
11:53 PM 48.0 °F - 37.0 °F 66% 30.27 in 10.0 mi Calm Calm - N/A   Clear